VIZARD-METEO (RS38S)

Last updated on Thu Oct 30 2025 00:03:10 GMT+0000 (Coordinated Universal Time)

1 57189U 23091Z 25302.44813644 .00020266 00000+0 75551-3 0 9992 2 57189 97.5427 3.3159 0009231 163.0547 197.1002 15.27430933129366
UTC large
Height (km)
Speed (km/s)
/
Latitude / Longitude
Inclination (degrees)
Orbital Period (minutes)
Azimuth
Elevation
Range (km)
Doppler Factor

Next 0 passes for location: London (51.5072 / 0.1276)

Sorry there are no passes over London.